owner,sensor,date,latitude,longitude,vertical_datum,sea_water_practical_salinity,qcFlag 
SCCF RECON,ioos:station:SCCF:11:1,2014-09-01T00:00:00Z,26.4679,-82.0631,2.04,29.83,1111122 
SCCF RECON,ioos:station:SCCF:11:1,2014-09-01T01:00:00Z,26.4679,-82.0631,1.98,29.59,1111122 
SCCF RECON,ioos:station:SCCF:11:1,2014-09-01T02:00:00Z,26.4679,-82.0631,1.93,29.57,1111122 
SCCF RECON,ioos:station:SCCF:11:1,2014-09-01T03:00:00Z,26.4679,-82.0631,1.869,29.52,1111122 
SCCF RECON,ioos:station:SCCF:11:1,2014-09-01T04:00:00Z,26.4679,-82.0631,1.87,29.5,1111122 
SCCF RECON,ioos:station:SCCF:11:1,2014-09-01T05:00:00Z,26.4679,-82.0631,1.97,30.09,1111122 
SCCF RECON,ioos:station:SCCF:11:1,2014-09-01T06:00:00Z,26.4679,-82.0631,2.06,30.06,1111122 
SCCF RECON,ioos:station:SCCF:11:1,2014-09-01T07:00:00Z,26.4679,-82.0631,2.14,30.43,1111122 
SCCF RECON,ioos:station:SCCF:11:1,2014-09-01T08:00:00Z,26.4679,-82.0631,2.19,30.29,1111122 
SCCF RECON,ioos:station:SCCF:11:1,2014-09-01T09:00:00Z,26.4679,-82.0631,2.23,29.57,1111122 
SCCF RECON,ioos:station:SCCF:11:1,2014-09-01T10:00:00Z,26.4679,-82.0631,2.21,30.18,1111122 
SCCF RECON,ioos:station:SCCF:11:1,2014-09-01T11:00:00Z,26.4679,-82.0631,2.15,29.98,1111122 
SCCF RECON,ioos:station:SCCF:11:1,2014-09-01T12:00:00Z,26.4679,-82.0631,2.05,30.01,1111122 
SCCF RECON,ioos:station:SCCF:11:1,2014-09-01T13:00:00Z,26.4679,-82.0631,1.95,29.83,1111122 
SCCF RECON,ioos:station:SCCF:11:1,2014-09-01T14:00:00Z,26.4679,-82.0631,1.855,29.71,1111122 
SCCF RECON,ioos:station:SCCF:11:1,2014-09-01T15:00:00Z,26.4679,-82.0631,1.734,29.61,1111122 
SCCF RECON,ioos:station:SCCF:11:1,2014-09-01T16:00:00Z,26.4679,-82.0631,1.663,29.57,1111122 
SCCF RECON,ioos:station:SCCF:11:1,2014-09-01T17:00:00Z,26.4679,-82.0631,1.637,29.48,1111122 
SCCF RECON,ioos:station:SCCF:11:1,2014-09-01T18:00:00Z,26.4679,-82.0631,1.71,29.69,1111122 
SCCF RECON,ioos:station:SCCF:11:1,2014-09-01T19:00:00Z,26.4679,-82.0631,1.828,30.33,1111122 
SCCF RECON,ioos:station:SCCF:11:1,2014-09-01T20:00:00Z,26.4679,-82.0631,1.908,30.1,1111122 
SCCF RECON,ioos:station:SCCF:11:1,2014-09-01T21:00:00Z,26.4679,-82.0631,2.011,29.88,1111122 
SCCF RECON,ioos:station:SCCF:11:1,2014-09-01T22:00:00Z,26.4679,-82.0631,2.01,29.42,1111122 
SCCF RECON,ioos:station:SCCF:11:1,2014-09-01T23:00:00Z,26.4679,-82.0631,1.985,29.66,1111122 
SCCF RECON,ioos:station:SCCF:11:1,2014-09-02T00:00:00Z,26.4679,-82.0631,2.0,29.73,1111122 
SCCF RECON,ioos:station:SCCF:11:1,2014-09-02T01:00:00Z,26.4679,-82.0631,2.01,29.95,1111122 
SCCF RECON,ioos:station:SCCF:11:1,2014-09-02T02:00:00Z,26.4679,-82.0631,1.99,29.94,1111122 
SCCF RECON,ioos:station:SCCF:11:1,2014-09-02T03:00:00Z,26.4679,-82.0631,1.91,29.73,1111122 
SCCF RECON,ioos:station:SCCF:11:1,2014-09-02T04:00:00Z,26.4679,-82.0631,1.886,29.57,1111122 
SCCF RECON,ioos:station:SCCF:11:1,2014-09-02T05:00:00Z,26.4679,-82.0631,1.878,29.6,1111122 
SCCF RECON,ioos:station:SCCF:11:1,2014-09-02T06:00:00Z,26.4679,-82.0631,1.942,29.7,1111122 
SCCF RECON,ioos:station:SCCF:11:1,2014-09-02T07:00:00Z,26.4679,-82.0631,2.02,29.39,1111122 
SCCF RECON,ioos:station:SCCF:11:1,2014-09-02T08:00:00Z,26.4679,-82.0631,2.1,29.16,1111122 
SCCF RECON,ioos:station:SCCF:11:1,2014-09-02T09:00:00Z,26.4679,-82.0631,2.17,29.1,1111122 
SCCF RECON,ioos:station:SCCF:11:1,2014-09-02T10:00:00Z,26.4679,-82.0631,2.2,28.54,1111122 
SCCF RECON,ioos:station:SCCF:11:1,2014-09-02T11:00:00Z,26.4679,-82.0631,2.15,29.22,1111122 
SCCF RECON,ioos:station:SCCF:11:1,2014-09-02T12:00:00Z,26.4679,-82.0631,2.07,29.27,1111122 
SCCF RECON,ioos:station:SCCF:11:1,2014-09-02T13:00:00Z,26.4679,-82.0631,2.01,29.33,1111122 
SCCF RECON,ioos:station:SCCF:11:1,2014-09-02T14:00:00Z,26.4679,-82.0631,1.932,29.32,1111122 
SCCF RECON,ioos:station:SCCF:11:1,2014-09-02T15:00:00Z,26.4679,-82.0631,1.825,29.33,1111122 
SCCF RECON,ioos:station:SCCF:11:1,2014-09-02T16:00:00Z,26.4679,-82.0631,1.7,29.32,1111122 
SCCF RECON,ioos:station:SCCF:11:1,2014-09-02T17:00:00Z,26.4679,-82.0631,1.6,29.3,1111122 
SCCF RECON,ioos:station:SCCF:11:1,2014-09-02T18:00:00Z,26.4679,-82.0631,1.58,29.26,1111122 
SCCF RECON,ioos:station:SCCF:11:1,2014-09-02T19:00:00Z,26.4679,-82.0631,1.6,29.31,1111122 
SCCF RECON,ioos:station:SCCF:11:1,2014-09-02T20:00:00Z,26.4679,-82.0631,1.727,29.46,1111122 
SCCF RECON,ioos:station:SCCF:11:1,2014-09-02T21:00:00Z,26.4679,-82.0631,1.79,29.12,1111122 
SCCF RECON,ioos:station:SCCF:11:1,2014-09-02T22:00:00Z,26.4679,-82.0631,1.82,29.19,1111122 
SCCF RECON,ioos:station:SCCF:11:1,2014-09-02T23:00:00Z,26.4679,-82.0631,1.91,29.44,1111122 
SCCF RECON,ioos:station:SCCF:11:1,2014-09-03T00:00:00Z,26.4679,-82.0631,1.96,29.56,1111122 
SCCF RECON,ioos:station:SCCF:11:1,2014-09-03T01:00:00Z,26.4679,-82.0631,2.03,28.74,1111122 
SCCF RECON,ioos:station:SCCF:11:1,2014-09-03T02:00:00Z,26.4679,-82.0631,1.96,28.69,1111122 
SCCF RECON,ioos:station:SCCF:11:1,2014-09-03T03:00:00Z,26.4679,-82.0631,1.96,29.1,1111122 
SCCF RECON,ioos:station:SCCF:11:1,2014-09-03T04:00:00Z,26.4679,-82.0631,1.91,29.17,1111122 
SCCF RECON,ioos:station:SCCF:11:1,2014-09-03T05:00:00Z,26.4679,-82.0631,1.889,29.22,1111122 
SCCF RECON,ioos:station:SCCF:11:1,2014-09-03T06:00:00Z,26.4679,-82.0631,1.84,29.21,1111122 
SCCF RECON,ioos:station:SCCF:11:1,2014-09-03T07:00:00Z,26.4679,-82.0631,1.9,29.2,1111122 
SCCF RECON,ioos:station:SCCF:11:1,2014-09-03T08:00:00Z,26.4679,-82.0631,2.0,29.17,1111122 
SCCF RECON,ioos:station:SCCF:11:1,2014-09-03T09:00:00Z,26.4679,-82.0631,2.06,29.53,1111122 
SCCF RECON,ioos:station:SCCF:11:1,2014-09-03T10:00:00Z,26.4679,-82.0631,2.14,29.67,1111122 
SCCF RECON,ioos:station:SCCF:11:1,2014-09-03T11:00:00Z,26.4679,-82.0631,2.17,28.98,1111122 
SCCF RECON,ioos:station:SCCF:11:1,2014-09-03T12:00:00Z,26.4679,-82.0631,2.19,29.26,1111122 
SCCF RECON,ioos:station:SCCF:11:1,2014-09-03T13:00:00Z,26.4679,-82.0631,2.139,29.35,1111122 
SCCF RECON,ioos:station:SCCF:11:1,2014-09-03T14:00:00Z,26.4679,-82.0631,2.044,29.21,1111122 
SCCF RECON,ioos:station:SCCF:11:1,2014-09-03T15:00:00Z,26.4679,-82.0631,1.907,29.18,1111122 
SCCF RECON,ioos:station:SCCF:11:1,2014-09-03T16:00:00Z,26.4679,-82.0631,1.814,29.16,1111122 
SCCF RECON,ioos:station:SCCF:11:1,2014-09-03T17:00:00Z,26.4679,-82.0631,1.7,29.16,1111122 
SCCF RECON,ioos:station:SCCF:11:1,2014-09-03T18:00:00Z,26.4679,-82.0631,1.57,29.14,1111122 
SCCF RECON,ioos:station:SCCF:11:1,2014-09-03T19:00:00Z,26.4679,-82.0631,1.51,29.14,1111122 
SCCF RECON,ioos:station:SCCF:11:1,2014-09-03T20:00:00Z,26.4679,-82.0631,1.57,29.17,1111122 
SCCF RECON,ioos:station:SCCF:11:1,2014-09-03T21:00:00Z,26.4679,-82.0631,1.653,29.36,1111122 
SCCF RECON,ioos:station:SCCF:11:1,2014-09-03T22:00:00Z,26.4679,-82.0631,1.7,29.29,1111122 
SCCF RECON,ioos:station:SCCF:11:1,2014-09-03T23:00:00Z,26.4679,-82.0631,1.781,28.47,1111122 
SCCF RECON,ioos:station:SCCF:11:1,2014-09-04T00:00:00Z,26.4679,-82.0631,1.879,26.29,1111122 
SCCF RECON,ioos:station:SCCF:11:1,2014-09-04T01:00:00Z,26.4679,-82.0631,1.97,26.84,1111122 
SCCF RECON,ioos:station:SCCF:11:1,2014-09-04T02:00:00Z,26.4679,-82.0631,2.04,27.43,1111122 
SCCF RECON,ioos:station:SCCF:11:1,2014-09-04T03:00:00Z,26.4679,-82.0631,2.04,28.41,1111122 
SCCF RECON,ioos:station:SCCF:11:1,2014-09-04T04:00:00Z,26.4679,-82.0631,2.023,28.23,1111122 
SCCF RECON,ioos:station:SCCF:11:1,2014-09-04T05:00:00Z,26.4679,-82.0631,1.961,27.65,1111122 
SCCF RECON,ioos:station:SCCF:11:1,2014-09-04T06:00:00Z,26.4679,-82.0631,1.89,27.56,1111122 
SCCF RECON,ioos:station:SCCF:11:1,2014-09-04T07:00:00Z,26.4679,-82.0631,1.87,27.92,1111122 
SCCF RECON,ioos:station:SCCF:11:1,2014-09-04T08:00:00Z,26.4679,-82.0631,1.892,27.87,1111122 
SCCF RECON,ioos:station:SCCF:11:1,2014-09-04T09:00:00Z,26.4679,-82.0631,1.959,28.62,1111122 
SCCF RECON,ioos:station:SCCF:11:1,2014-09-04T10:00:00Z,26.4679,-82.0631,2.09,29.78,1111122 
SCCF RECON,ioos:station:SCCF:11:1,2014-09-04T11:00:00Z,26.4679,-82.0631,2.166,29.71,1111122 
SCCF RECON,ioos:station:SCCF:11:1,2014-09-04T12:00:00Z,26.4679,-82.0631,2.196,29.88,1111122 
SCCF RECON,ioos:station:SCCF:11:1,2014-09-04T13:00:00Z,26.4679,-82.0631,2.21,29.69,1111122 
SCCF RECON,ioos:station:SCCF:11:1,2014-09-04T14:00:00Z,26.4679,-82.0631,2.191,30.58,1111122 
SCCF RECON,ioos:station:SCCF:11:1,2014-09-04T15:00:00Z,26.4679,-82.0631,2.12,29.54,1111122 
SCCF RECON,ioos:station:SCCF:11:1,2014-09-04T16:00:00Z,26.4679,-82.0631,1.996,28.84,1111122 
SCCF RECON,ioos:station:SCCF:11:1,2014-09-04T17:00:00Z,26.4679,-82.0631,1.856,28.74,1111122 
SCCF RECON,ioos:station:SCCF:11:1,2014-09-04T18:00:00Z,26.4679,-82.0631,1.741,28.77,1111122 
SCCF RECON,ioos:station:SCCF:11:1,2014-09-04T19:00:00Z,26.4679,-82.0631,1.58,28.73,1111122 
SCCF RECON,ioos:station:SCCF:11:1,2014-09-04T20:00:00Z,26.4679,-82.0631,1.48,28.85,1111122 
SCCF RECON,ioos:station:SCCF:11:1,2014-09-04T21:00:00Z,26.4679,-82.0631,1.47,28.8,1111122 
SCCF RECON,ioos:station:SCCF:11:1,2014-09-04T22:00:00Z,26.4679,-82.0631,1.56,29.39,1111122 
SCCF RECON,ioos:station:SCCF:11:1,2014-09-04T23:00:00Z,26.4679,-82.0631,1.71,29.83,1111122 
SCCF RECON,ioos:station:SCCF:11:1,2014-09-05T00:00:00Z,26.4679,-82.0631,1.84,29.42,1111122 
SCCF RECON,ioos:station:SCCF:11:1,2014-09-05T01:00:00Z,26.4679,-82.0631,1.94,29.38,1111122 
SCCF RECON,ioos:station:SCCF:11:1,2014-09-05T02:00:00Z,26.4679,-82.0631,2.04,29.52,1111122 
SCCF RECON,ioos:station:SCCF:11:1,2014-09-05T03:00:00Z,26.4679,-82.0631,2.09,29.32,1111122 
SCCF RECON,ioos:station:SCCF:11:1,2014-09-05T04:00:00Z,26.4679,-82.0631,2.06,29.34,1111122 
SCCF RECON,ioos:station:SCCF:11:1,2014-09-05T05:00:00Z,26.4679,-82.0631,1.97,29.33,1111122 
SCCF RECON,ioos:station:SCCF:11:1,2014-09-05T06:00:00Z,26.4679,-82.0631,1.9,29.28,1111122 
SCCF RECON,ioos:station:SCCF:11:1,2014-09-05T07:00:00Z,26.4679,-82.0631,1.85,29.21,1111122 
SCCF RECON,ioos:station:SCCF:11:1,2014-09-05T08:00:00Z,26.4679,-82.0631,1.81,29.27,1111122 
SCCF RECON,ioos:station:SCCF:11:1,2014-09-05T09:00:00Z,26.4679,-82.0631,1.835,29.21,1111122 
SCCF RECON,ioos:station:SCCF:11:1,2014-09-05T10:00:00Z,26.4679,-82.0631,1.92,29.34,1111122 
SCCF RECON,ioos:station:SCCF:11:1,2014-09-05T11:00:00Z,26.4679,-82.0631,2.06,29.8,1111122 
SCCF RECON,ioos:station:SCCF:11:1,2014-09-05T12:00:00Z,26.4679,-82.0631,2.17,29.08,1111122 
SCCF RECON,ioos:station:SCCF:11:1,2014-09-05T13:00:00Z,26.4679,-82.0631,2.221,29.42,1111122 
SCCF RECON,ioos:station:SCCF:11:1,2014-09-05T14:00:00Z,26.4679,-82.0631,2.24,29.8,1111122 
SCCF RECON,ioos:station:SCCF:11:1,2014-09-05T15:00:00Z,26.4679,-82.0631,2.211,30.38,1111122 
SCCF RECON,ioos:station:SCCF:11:1,2014-09-05T16:00:00Z,26.4679,-82.0631,2.121,29.08,1111122 
SCCF RECON,ioos:station:SCCF:11:1,2014-09-05T17:00:00Z,26.4679,-82.0631,1.973,29.31,1111122 
SCCF RECON,ioos:station:SCCF:11:1,2014-09-05T18:00:00Z,26.4679,-82.0631,1.814,29.25,1111122 
SCCF RECON,ioos:station:SCCF:11:1,2014-09-05T19:00:00Z,26.4679,-82.0631,1.661,29.23,1111122 
SCCF RECON,ioos:station:SCCF:11:1,2014-09-05T20:00:00Z,26.4679,-82.0631,1.532,29.2,1111122 
SCCF RECON,ioos:station:SCCF:11:1,2014-09-05T21:00:00Z,26.4679,-82.0631,1.45,29.17,1111122 
SCCF RECON,ioos:station:SCCF:11:1,2014-09-05T22:00:00Z,26.4679,-82.0631,1.44,29.15,1111122 
SCCF RECON,ioos:station:SCCF:11:1,2014-09-05T23:00:00Z,26.4679,-82.0631,1.53,29.32,1111122 
SCCF RECON,ioos:station:SCCF:11:1,2014-09-06T00:00:00Z,26.4679,-82.0631,1.685,29.44,1111122 
SCCF RECON,ioos:station:SCCF:11:1,2014-09-06T01:00:00Z,26.4679,-82.0631,1.82,28.99,1111122 
SCCF RECON,ioos:station:SCCF:11:1,2014-09-06T02:00:00Z,26.4679,-82.0631,1.921,29.28,1111122 
SCCF RECON,ioos:station:SCCF:11:1,2014-09-06T03:00:00Z,26.4679,-82.0631,1.989,28.82,1111122 
SCCF RECON,ioos:station:SCCF:11:1,2014-09-06T04:00:00Z,26.4679,-82.0631,2.06,28.92,1111122 
SCCF RECON,ioos:station:SCCF:11:1,2014-09-06T05:00:00Z,26.4679,-82.0631,2.03,29.29,1111122 
SCCF RECON,ioos:station:SCCF:11:1,2014-09-06T06:00:00Z,26.4679,-82.0631,1.92,28.92,1111122 
SCCF RECON,ioos:station:SCCF:11:1,2014-09-06T07:00:00Z,26.4679,-82.0631,1.84,29.08,1111122 
SCCF RECON,ioos:station:SCCF:11:1,2014-09-06T08:00:00Z,26.4679,-82.0631,1.74,29.07,1111122 
SCCF RECON,ioos:station:SCCF:11:1,2014-09-06T09:00:00Z,26.4679,-82.0631,1.71,29.13,1111122 
SCCF RECON,ioos:station:SCCF:11:1,2014-09-06T10:00:00Z,26.4679,-82.0631,1.77,29.07,1111122 
SCCF RECON,ioos:station:SCCF:11:1,2014-09-06T11:00:00Z,26.4679,-82.0631,1.85,29.2,1111122 
SCCF RECON,ioos:station:SCCF:11:1,2014-09-06T12:00:00Z,26.4679,-82.0631,1.981,29.51,1111122 
SCCF RECON,ioos:station:SCCF:11:1,2014-09-06T13:00:00Z,26.4679,-82.0631,2.119,29.46,1111122 
SCCF RECON,ioos:station:SCCF:11:1,2014-09-06T14:00:00Z,26.4679,-82.0631,2.208,29.08,1111122 
SCCF RECON,ioos:station:SCCF:11:1,2014-09-06T15:00:00Z,26.4679,-82.0631,2.26,30.18,1111122 
SCCF RECON,ioos:station:SCCF:11:1,2014-09-06T16:00:00Z,26.4679,-82.0631,2.252,30.26,1111122 
SCCF RECON,ioos:station:SCCF:11:1,2014-09-06T17:00:00Z,26.4679,-82.0631,2.139,29.04,1111122 
SCCF RECON,ioos:station:SCCF:11:1,2014-09-06T18:00:00Z,26.4679,-82.0631,1.96,29.12,1111122 
SCCF RECON,ioos:station:SCCF:11:1,2014-09-06T19:00:00Z,26.4679,-82.0631,1.787,29.21,1111122 
SCCF RECON,ioos:station:SCCF:11:1,2014-09-06T20:00:00Z,26.4679,-82.0631,1.643,29.16,1111122 
SCCF RECON,ioos:station:SCCF:11:1,2014-09-06T21:00:00Z,26.4679,-82.0631,1.541,29.2,1111122 
SCCF RECON,ioos:station:SCCF:11:1,2014-09-06T22:00:00Z,26.4679,-82.0631,1.397,29.2,1111122 
SCCF RECON,ioos:station:SCCF:11:1,2014-09-06T23:00:00Z,26.4679,-82.0631,1.38,29.22,1111122 
SCCF RECON,ioos:station:SCCF:11:1,2014-09-07T00:00:00Z,26.4679,-82.0631,1.48,29.24,1111122 
SCCF RECON,ioos:station:SCCF:11:1,2014-09-07T01:00:00Z,26.4679,-82.0631,1.66,29.31,1111122 
SCCF RECON,ioos:station:SCCF:11:1,2014-09-07T02:00:00Z,26.4679,-82.0631,1.83,29.18,1111122 
SCCF RECON,ioos:station:SCCF:11:1,2014-09-07T03:00:00Z,26.4679,-82.0631,1.954,29.35,1111122 
SCCF RECON,ioos:station:SCCF:11:1,2014-09-07T04:00:00Z,26.4679,-82.0631,2.06,29.52,1111122 
SCCF RECON,ioos:station:SCCF:11:1,2014-09-07T05:00:00Z,26.4679,-82.0631,2.1,30.34,1111122 
SCCF RECON,ioos:station:SCCF:11:1,2014-09-07T06:00:00Z,26.4679,-82.0631,2.03,29.71,1111122 
SCCF RECON,ioos:station:SCCF:11:1,2014-09-07T07:00:00Z,26.4679,-82.0631,1.89,29.3,1111122 
SCCF RECON,ioos:station:SCCF:11:1,2014-09-07T08:00:00Z,26.4679,-82.0631,1.78,29.2,1111122 
SCCF RECON,ioos:station:SCCF:11:1,2014-09-07T09:00:00Z,26.4679,-82.0631,1.74,29.19,1111122 
SCCF RECON,ioos:station:SCCF:11:1,2014-09-07T10:00:00Z,26.4679,-82.0631,1.68,29.15,1111122 
SCCF RECON,ioos:station:SCCF:11:1,2014-09-07T11:00:00Z,26.4679,-82.0631,1.68,29.2,1111122 
SCCF RECON,ioos:station:SCCF:11:1,2014-09-07T12:00:00Z,26.4679,-82.0631,1.82,29.58,1111122 
SCCF RECON,ioos:station:SCCF:11:1,2014-09-07T13:00:00Z,26.4679,-82.0631,2.05,29.29,1111122 
SCCF RECON,ioos:station:SCCF:11:1,2014-09-07T14:00:00Z,26.4679,-82.0631,2.18,29.19,1111122 
SCCF RECON,ioos:station:SCCF:11:1,2014-09-07T15:00:00Z,26.4679,-82.0631,2.296,30.89,1111122 
SCCF RECON,ioos:station:SCCF:11:1,2014-09-07T16:00:00Z,26.4679,-82.0631,2.36,31.84,1111122 
SCCF RECON,ioos:station:SCCF:11:1,2014-09-07T17:00:00Z,26.4679,-82.0631,2.31,32.65,1111122 
SCCF RECON,ioos:station:SCCF:11:1,2014-09-07T18:00:00Z,26.4679,-82.0631,2.15,29.64,1111122 
SCCF RECON,ioos:station:SCCF:11:1,2014-09-07T19:00:00Z,26.4679,-82.0631,1.983,29.54,1111122 
SCCF RECON,ioos:station:SCCF:11:1,2014-09-07T20:00:00Z,26.4679,-82.0631,1.823,29.59,1111122 
SCCF RECON,ioos:station:SCCF:11:1,2014-09-07T21:00:00Z,26.4679,-82.0631,1.65,29.54,1111122 
SCCF RECON,ioos:station:SCCF:11:1,2014-09-07T22:00:00Z,26.4679,-82.0631,1.51,29.38,1111122 
SCCF RECON,ioos:station:SCCF:11:1,2014-09-07T23:00:00Z,26.4679,-82.0631,1.438,29.39,1111122 
SCCF RECON,ioos:station:SCCF:11:1,2014-09-08T00:00:00Z,26.4679,-82.0631,1.45,29.43,1111122 
SCCF RECON,ioos:station:SCCF:11:1,2014-09-08T01:00:00Z,26.4679,-82.0631,1.617,29.67,1111122 
SCCF RECON,ioos:station:SCCF:11:1,2014-09-08T02:00:00Z,26.4679,-82.0631,1.81,29.81,1111122 
SCCF RECON,ioos:station:SCCF:11:1,2014-09-08T03:00:00Z,26.4679,-82.0631,1.97,30.02,1111122 
SCCF RECON,ioos:station:SCCF:11:1,2014-09-08T04:00:00Z,26.4679,-82.0631,2.07,30.43,1111122 
SCCF RECON,ioos:station:SCCF:11:1,2014-09-08T05:00:00Z,26.4679,-82.0631,2.15,31.31,1111122 
SCCF RECON,ioos:station:SCCF:11:1,2014-09-08T06:00:00Z,26.4679,-82.0631,2.159,31.92,1111122 
SCCF RECON,ioos:station:SCCF:11:1,2014-09-08T07:00:00Z,26.4679,-82.0631,2.03,30.18,1111122 
SCCF RECON,ioos:station:SCCF:11:1,2014-09-08T08:00:00Z,26.4679,-82.0631,1.882,30.09,1111122 
SCCF RECON,ioos:station:SCCF:11:1,2014-09-08T09:00:00Z,26.4679,-82.0631,1.761,29.87,1111122 
SCCF RECON,ioos:station:SCCF:11:1,2014-09-08T10:00:00Z,26.4679,-82.0631,1.68,29.79,1111122 
SCCF RECON,ioos:station:SCCF:11:1,2014-09-08T11:00:00Z,26.4679,-82.0631,1.6,29.77,1111122 
SCCF RECON,ioos:station:SCCF:11:1,2014-09-08T12:00:00Z,26.4679,-82.0631,1.65,29.85,1111122 
SCCF RECON,ioos:station:SCCF:11:1,2014-09-08T13:00:00Z,26.4679,-82.0631,1.83,30.48,1111122 
SCCF RECON,ioos:station:SCCF:11:1,2014-09-08T14:00:00Z,26.4679,-82.0631,2.05,30.06,1111122 
SCCF RECON,ioos:station:SCCF:11:1,2014-09-08T15:00:00Z,26.4679,-82.0631,2.19,30.9,1111122 
SCCF RECON,ioos:station:SCCF:11:1,2014-09-08T16:00:00Z,26.4679,-82.0631,2.29,31.46,1111122 
SCCF RECON,ioos:station:SCCF:11:1,2014-09-08T17:00:00Z,26.4679,-82.0631,2.341,33.22,1111122 
SCCF RECON,ioos:station:SCCF:11:1,2014-09-08T18:00:00Z,26.4679,-82.0631,2.325,33.21,1111122 
SCCF RECON,ioos:station:SCCF:11:1,2014-09-08T19:00:00Z,26.4679,-82.0631,2.152,30.75,1111122 
SCCF RECON,ioos:station:SCCF:11:1,2014-09-08T20:00:00Z,26.4679,-82.0631,1.974,30.37,1111122 
SCCF RECON,ioos:station:SCCF:11:1,2014-09-08T21:00:00Z,26.4679,-82.0631,1.8,30.19,1111122 
SCCF RECON,ioos:station:SCCF:11:1,2014-09-08T22:00:00Z,26.4679,-82.0631,1.661,30.14,1111122 
SCCF RECON,ioos:station:SCCF:11:1,2014-09-08T23:00:00Z,26.4679,-82.0631,1.54,30.03,1111122 
SCCF RECON,ioos:station:SCCF:11:1,2014-09-09T00:00:00Z,26.4679,-82.0631,1.48,29.92,1111122 
SCCF RECON,ioos:station:SCCF:11:1,2014-09-09T01:00:00Z,26.4679,-82.0631,1.56,30.29,1111122 
SCCF RECON,ioos:station:SCCF:11:1,2014-09-09T02:00:00Z,26.4679,-82.0631,1.77,31.04,1111122 
SCCF RECON,ioos:station:SCCF:11:1,2014-09-09T03:00:00Z,26.4679,-82.0631,1.94,30.14,1111122 
SCCF RECON,ioos:station:SCCF:11:1,2014-09-09T04:00:00Z,26.4679,-82.0631,2.039,30.65,1111122 
SCCF RECON,ioos:station:SCCF:11:1,2014-09-09T05:00:00Z,26.4679,-82.0631,2.13,30.89,1111122 
SCCF RECON,ioos:station:SCCF:11:1,2014-09-09T06:00:00Z,26.4679,-82.0631,2.16,31.43,1111122 
SCCF RECON,ioos:station:SCCF:11:1,2014-09-09T07:00:00Z,26.4679,-82.0631,2.08,31.17,1111122 
SCCF RECON,ioos:station:SCCF:11:1,2014-09-09T08:00:00Z,26.4679,-82.0631,1.947,30.6,1111122 
SCCF RECON,ioos:station:SCCF:11:1,2014-09-09T09:00:00Z,26.4679,-82.0631,1.815,30.3,1111122 
SCCF RECON,ioos:station:SCCF:11:1,2014-09-09T10:00:00Z,26.4679,-82.0631,1.689,30.3,1111122 
SCCF RECON,ioos:station:SCCF:11:1,2014-09-09T11:00:00Z,26.4679,-82.0631,1.56,30.26,1111122 
SCCF RECON,ioos:station:SCCF:11:1,2014-09-09T12:00:00Z,26.4679,-82.0631,1.51,30.18,1111122 
SCCF RECON,ioos:station:SCCF:11:1,2014-09-09T13:00:00Z,26.4679,-82.0631,1.609,30.43,1111122 
SCCF RECON,ioos:station:SCCF:11:1,2014-09-09T14:00:00Z,26.4679,-82.0631,1.83,30.63,1111122 
SCCF RECON,ioos:station:SCCF:11:1,2014-09-09T15:00:00Z,26.4679,-82.0631,2.02,30.53,1111122 
SCCF RECON,ioos:station:SCCF:11:1,2014-09-09T16:00:00Z,26.4679,-82.0631,2.162,31.02,1111122 
SCCF RECON,ioos:station:SCCF:11:1,2014-09-09T17:00:00Z,26.4679,-82.0631,2.26,32.56,1111122 
SCCF RECON,ioos:station:SCCF:11:1,2014-09-09T18:00:00Z,26.4679,-82.0631,2.28,33.01,1111122 
SCCF RECON,ioos:station:SCCF:11:1,2014-09-09T19:00:00Z,26.4679,-82.0631,2.22,33.73,1111122 
SCCF RECON,ioos:station:SCCF:11:1,2014-09-09T20:00:00Z,26.4679,-82.0631,2.07,30.95,1111122 
SCCF RECON,ioos:station:SCCF:11:1,2014-09-09T21:00:00Z,26.4679,-82.0631,1.955,30.73,1111122 
SCCF RECON,ioos:station:SCCF:11:1,2014-09-09T22:00:00Z,26.4679,-82.0631,1.759,30.39,1111122 
SCCF RECON,ioos:station:SCCF:11:1,2014-09-09T23:00:00Z,26.4679,-82.0631,1.613,30.43,1111122 
SCCF RECON,ioos:station:SCCF:11:1,2014-09-10T00:00:00Z,26.4679,-82.0631,1.507,30.32,1111122 
SCCF RECON,ioos:station:SCCF:11:1,2014-09-10T01:00:00Z,26.4679,-82.0631,1.49,30.23,1111122 
SCCF RECON,ioos:station:SCCF:11:1,2014-09-10T02:00:00Z,26.4679,-82.0631,1.62,30.44,1111122 
SCCF RECON,ioos:station:SCCF:11:1,2014-09-10T03:00:00Z,26.4679,-82.0631,1.817,30.59,1111122 
SCCF RECON,ioos:station:SCCF:11:1,2014-09-10T04:00:00Z,26.4679,-82.0631,1.941,30.45,1111122 
SCCF RECON,ioos:station:SCCF:11:1,2014-09-10T05:00:00Z,26.4679,-82.0631,2.034,30.92,1111122 
SCCF RECON,ioos:station:SCCF:11:1,2014-09-10T06:00:00Z,26.4679,-82.0631,2.11,30.98,1111122 
SCCF RECON,ioos:station:SCCF:11:1,2014-09-10T07:00:00Z,26.4679,-82.0631,2.1,31.23,1111122 
SCCF RECON,ioos:station:SCCF:11:1,2014-09-10T08:00:00Z,26.4679,-82.0631,2.01,30.54,1111122 
SCCF RECON,ioos:station:SCCF:11:1,2014-09-10T09:00:00Z,26.4679,-82.0631,1.841,30.48,1111122 
SCCF RECON,ioos:station:SCCF:11:1,2014-09-10T10:00:00Z,26.4679,-82.0631,1.712,30.42,1111122 
SCCF RECON,ioos:station:SCCF:11:1,2014-09-10T11:00:00Z,26.4679,-82.0631,1.579,30.37,1111122 
SCCF RECON,ioos:station:SCCF:11:1,2014-09-10T12:00:00Z,26.4679,-82.0631,1.46,30.39,1111122 
SCCF RECON,ioos:station:SCCF:11:1,2014-09-10T13:00:00Z,26.4679,-82.0631,1.41,30.32,1111122 
SCCF RECON,ioos:station:SCCF:11:1,2014-09-10T14:00:00Z,26.4679,-82.0631,1.53,30.5,1111122 
SCCF RECON,ioos:station:SCCF:11:1,2014-09-10T15:00:00Z,26.4679,-82.0631,1.75,30.37,1111122 
SCCF RECON,ioos:station:SCCF:11:1,2014-09-10T16:00:00Z,26.4679,-82.0631,1.93,30.45,1111122 
SCCF RECON,ioos:station:SCCF:11:1,2014-09-10T17:00:00Z,26.4679,-82.0631,2.06,30.7,1111122 
SCCF RECON,ioos:station:SCCF:11:1,2014-09-10T18:00:00Z,26.4679,-82.0631,2.169,32.02,1111122 
SCCF RECON,ioos:station:SCCF:11:1,2014-09-10T19:00:00Z,26.4679,-82.0631,2.21,33.39,1111122 
SCCF RECON,ioos:station:SCCF:11:1,2014-09-10T20:00:00Z,26.4679,-82.0631,2.153,33.47,1111122 
SCCF RECON,ioos:station:SCCF:11:1,2014-09-10T21:00:00Z,26.4679,-82.0631,2.017,30.74,1111122 
SCCF RECON,ioos:station:SCCF:11:1,2014-09-10T22:00:00Z,26.4679,-82.0631,1.89,30.55,1111122 
SCCF RECON,ioos:station:SCCF:11:1,2014-09-10T23:00:00Z,26.4679,-82.0631,1.769,30.41,1111122 
SCCF RECON,ioos:station:SCCF:11:1,2014-09-11T00:00:00Z,26.4679,-82.0631,1.641,30.36,1111122 
SCCF RECON,ioos:station:SCCF:11:1,2014-09-11T01:00:00Z,26.4679,-82.0631,1.56,30.35,1111122 
SCCF RECON,ioos:station:SCCF:11:1,2014-09-11T02:00:00Z,26.4679,-82.0631,1.59,30.45,1111122 
SCCF RECON,ioos:station:SCCF:11:1,2014-09-11T03:00:00Z,26.4679,-82.0631,1.76,31.6,1111122 
SCCF RECON,ioos:station:SCCF:11:1,2014-09-11T04:00:00Z,26.4679,-82.0631,1.95,30.71,1111122 
SCCF RECON,ioos:station:SCCF:11:1,2014-09-11T05:00:00Z,26.4679,-82.0631,2.08,31.14,1111122 
SCCF RECON,ioos:station:SCCF:11:1,2014-09-11T06:00:00Z,26.4679,-82.0631,2.16,32.09,1111122 
SCCF RECON,ioos:station:SCCF:11:1,2014-09-11T07:00:00Z,26.4679,-82.0631,2.2,32.47,1111122 
SCCF RECON,ioos:station:SCCF:11:1,2014-09-11T08:00:00Z,26.4679,-82.0631,2.17,32.62,1111122 
SCCF RECON,ioos:station:SCCF:11:1,2014-09-11T09:00:00Z,26.4679,-82.0631,2.04,31.22,1111122 
SCCF RECON,ioos:station:SCCF:11:1,2014-09-11T10:00:00Z,26.4679,-82.0631,1.87,30.87,1111122 
SCCF RECON,ioos:station:SCCF:11:1,2014-09-11T11:00:00Z,26.4679,-82.0631,1.71,30.7,1111122 
SCCF RECON,ioos:station:SCCF:11:1,2014-09-11T12:00:00Z,26.4679,-82.0631,1.57,30.67,1111122 
SCCF RECON,ioos:station:SCCF:11:1,2014-09-11T13:00:00Z,26.4679,-82.0631,1.47,30.64,1111122 
SCCF RECON,ioos:station:SCCF:11:1,2014-09-11T14:00:00Z,26.4679,-82.0631,1.45,30.51,1111122 
SCCF RECON,ioos:station:SCCF:11:1,2014-09-11T15:00:00Z,26.4679,-82.0631,1.58,30.78,1111122 
SCCF RECON,ioos:station:SCCF:11:1,2014-09-11T16:00:00Z,26.4679,-82.0631,1.784,31.29,1111122 
SCCF RECON,ioos:station:SCCF:11:1,2014-09-11T17:00:00Z,26.4679,-82.0631,1.95,31.05,1111122 
SCCF RECON,ioos:station:SCCF:11:1,2014-09-11T18:00:00Z,26.4679,-82.0631,2.05,31.03,1111122 